CZ-2D DEB

Satellite information

Favourite Embed

Satellite Type and Status

DEBRISIN ORBIT

Key statistics

Satellite CZ-2D DEB at a glance.

Uptime

7466

Days in orbit

Revolutions

≈ 15.7

Per day

Orbit

SSO

Sun Synchronous Orbit

Inclination

97.2

Latest

Satellite identification and parameters

Extended collection of information and parameters for CZ-2D DEB.

Object identification

Identified? True

Debris? True

Object name: CZ-2D DEB

International designator: 2005-024L

Object number (NORAD): 35272

Object ID (CCSDS): 35272

Country: PEOPLES REPUBLIC OF CHINA (PRC)

Current information (Y/N): Y

RCS size: SMALL

Orbital parameters

Period: 91.971 minutes

Inclination: 97.1869 deg

SMA: 6749.342 km

Apoapsis: 375.91 km

Periapsis: 366.504 km

RAAN: 11.8673 deg

Eccentricy: 0.00069685

Argument of periapsis: 99.6522 deg

Mean anomaly: 260.5526 deg

Mean motion: 15.65707356 rev/day

Mean motion (dot): 0.00088716 rev/day2

B* drag term: 0.00087219535 1/REarth

Two-line elements (TLE)

Creation date: Dec. 11, 2025, 10:54 a.m.

Reference frame: TEME

Reference center: EARTH

Epoch: Dec. 11, 2025, 7:28 a.m. UTC

TLE line 0: 0 CZ-2D DEB

TLE line 1: 1 35272U 05024L 25345.31140971 .00088716 00000-0 87220-3 0 9997

TLE line 2: 2 35272 97.1869 11.8673 0006969 99.6522 260.5526 15.65707356109832

Live tracking on map

Real-time ground track for satellite CZ-2D DEB.

In-orbit conjunctions

A list of the most updated potential collisions computed for object CZ-2D DEB.

Target Orbit TCA Probability of collision Miss distance Type
COSMOS 2251 DEB LEO 2024-06-17 18:44:53 0.0001063449 426.0 (m) DEBRIS

Associated space launch

Chinese maneuverable military satellites, believed to have an interceptor / inspector / antisatellite mission. Launched from Jiuquan by the CZ-2D launch vehicle into 600 km, 97.7 deg inclination sun synchronous orbits.

CZ-2D DEB was lifted into orbit during the mission ‘Long March 2D | Shi Jian 7’, on board a Long March 2D space rocket.

The launch took place on July 5, 2005, 10:40 p.m. from Launch Area 94 (SLS-2 / 603).

For more information about the launch, click the button.

Launch to space Long March 2D | Shi Jian 7
Long March 2D | Shi Jian 7

Agency: N/A

Status: Launch Successful

Launch date: July 5, 2005, 10:40 p.m. UTC

Rocket: Long March 2D

Launch pad: Launch Area 94 (SLS-2 / 603)

Location: Jiuquan Satellite Launch Center, People's Republic of China

...

Latest news about this satellite

There are no fresh news available about this satellite. Check back as we update our databases every day.


Newsletter sign-up

Weekly statistics, charts and insights to help you stay on top of the space industry.